TimeCDT,TemperatureF,Dew PointF,Humidity,Sea Level PressureIn,VisibilityMPH,Wind Direction,Wind SpeedMPH,Gust SpeedMPH,PrecipitationIn,Events,Conditions,WindDirDegrees,DateUTC
12:15 AM,32.0,28.4,87,30.13,10.0,ENE,4.6,-,N/A,,Overcast,70,2012-11-01 05:15:00
12:35 AM,32.0,28.4,87,30.15,10.0,NE,3.5,-,N/A,,Overcast,50,2012-11-01 05:35:00
12:55 AM,32.0,28.4,87,30.16,10.0,NE,5.8,-,N/A,,Overcast,50,2012-11-01 05:55:00
1:15 AM,32.0,28.4,87,30.16,10.0,NE,8.1,-,N/A,,Overcast,40,2012-11-01 06:15:00
1:35 AM,32.0,26.6,80,30.15,10.0,ENE,8.1,-,N/A,,Overcast,60,2012-11-01 06:35:00
1:55 AM,32.0,26.6,80,30.14,10.0,ENE,9.2,-,N/A,,Overcast,70,2012-11-01 06:55:00
2:15 AM,28.4,26.6,93,30.14,10.0,ENE,6.9,-,N/A,,Overcast,60,2012-11-01 07:15:00
2:35 AM,28.4,24.8,86,30.14,10.0,ENE,6.9,-,N/A,,Overcast,60,2012-11-01 07:35:00
2:55 AM,26.6,24.8,93,30.14,10.0,ENE,6.9,-,N/A,,Overcast,70,2012-11-01 07:55:00
3:15 AM,26.6,24.8,93,30.13,10.0,ENE,5.8,-,N/A,,Mostly Cloudy,70,2012-11-01 08:15:00
3:35 AM,26.6,24.8,93,30.13,10.0,East,3.5,-,N/A,,Mostly Cloudy,80,2012-11-01 08:35:00
3:55 AM,24.8,24.8,100,30.14,10.0,Calm,Calm,-,N/A,,Overcast,0,2012-11-01 08:55:00
4:15 AM,26.6,24.8,93,30.14,10.0,NE,4.6,-,N/A,,Overcast,50,2012-11-01 09:15:00
4:35 AM,26.6,24.8,93,30.13,10.0,ENE,4.6,-,N/A,,Overcast,70,2012-11-01 09:35:00
4:55 AM,26.6,24.8,93,30.12,10.0,ENE,6.9,-,N/A,,Overcast,70,2012-11-01 09:55:00
5:35 AM,26.6,24.8,93,30.14,10.0,ENE,4.6,-,N/A,,Overcast,70,2012-11-01 10:35:00
5:55 AM,26.6,24.8,93,30.13,10.0,ENE,4.6,-,N/A,,Overcast,70,2012-11-01 10:55:00
6:15 AM,26.6,24.8,93,30.13,10.0,ENE,5.8,-,N/A,,Overcast,60,2012-11-01 11:15:00
6:35 AM,26.6,24.8,93,30.12,10.0,East,6.9,-,N/A,,Overcast,80,2012-11-01 11:35:00
6:55 AM,26.6,24.8,93,30.12,10.0,ENE,4.6,-,N/A,,Overcast,70,2012-11-01 11:55:00
7:15 AM,26.6,24.8,93,30.12,10.0,East,6.9,-,N/A,,Overcast,80,2012-11-01 12:15:00
7:35 AM,26.6,24.8,93,30.12,10.0,East,5.8,-,N/A,,Overcast,80,2012-11-01 12:35:00
7:55 AM,26.6,24.8,93,30.12,10.0,ENE,4.6,-,N/A,,Overcast,70,2012-11-01 12:55:00
8:15 AM,28.4,26.6,93,30.12,10.0,East,4.6,-,N/A,,Overcast,80,2012-11-01 13:15:00
8:35 AM,28.4,26.6,93,30.12,10.0,ENE,8.1,-,N/A,,Overcast,70,2012-11-01 13:35:00
8:55 AM,30.2,28.4,93,30.12,10.0,East,6.9,-,N/A,,Overcast,80,2012-11-01 13:55:00
9:15 AM,32.0,28.4,87,30.12,10.0,East,8.1,-,N/A,,Overcast,100,2012-11-01 14:15:00
9:35 AM,32.0,28.4,87,30.12,10.0,ESE,10.4,-,N/A,,Overcast,110,2012-11-01 14:35:00
10:35 AM,32.0,28.4,87,30.12,10.0,ESE,9.2,-,N/A,,Overcast,110,2012-11-01 15:35:00
10:55 AM,32.0,28.4,87,30.11,10.0,ESE,9.2,-,N/A,,Overcast,110,2012-11-01 15:55:00
11:15 AM,32.0,28.4,87,30.10,10.0,ESE,11.5,16.1,N/A,,Overcast,110,2012-11-01 16:15:00
11:35 AM,32.0,26.6,80,30.10,10.0,ESE,15.0,-,N/A,,Overcast,120,2012-11-01 16:35:00
11:55 AM,32.0,26.6,80,30.10,10.0,ESE,12.7,16.1,N/A,,Overcast,110,2012-11-01 16:55:00
12:15 PM,32.0,26.6,80,30.09,10.0,East,12.7,17.3,N/A,,Overcast,90,2012-11-01 17:15:00
12:35 PM,33.8,26.6,75,30.09,10.0,ESE,11.5,18.4,N/A,,Mostly Cloudy,120,2012-11-01 17:35:00
1:15 PM,35.6,26.6,70,30.08,10.0,ESE,12.7,21.9,N/A,,Mostly Cloudy,120,2012-11-01 18:15:00
1:35 PM,35.6,26.6,70,30.07,10.0,ESE,13.8,17.3,N/A,,Partly Cloudy,120,2012-11-01 18:35:00
1:55 PM,35.6,26.6,70,30.06,10.0,ESE,11.5,18.4,N/A,,Clear,110,2012-11-01 18:55:00
2:15 PM,37.4,24.8,60,30.05,10.0,East,12.7,18.4,N/A,,Clear,100,2012-11-01 19:15:00
2:35 PM,37.4,26.6,65,30.04,10.0,ESE,11.5,17.3,N/A,,Clear,110,2012-11-01 19:35:00
3:35 PM,39.2,24.8,56,30.02,10.0,East,10.4,-,N/A,,Clear,100,2012-11-01 20:35:00
3:55 PM,37.4,24.8,60,30.02,10.0,East,11.5,-,N/A,,Clear,100,2012-11-01 20:55:00
4:15 PM,37.4,24.8,60,30.01,10.0,East,13.8,17.3,N/A,,Clear,90,2012-11-01 21:15:00
4:35 PM,37.4,24.8,60,30.02,10.0,East,11.5,16.1,N/A,,Clear,90,2012-11-01 21:35:00
4:55 PM,35.6,24.8,65,30.01,10.0,East,11.5,16.1,N/A,,Clear,100,2012-11-01 21:55:00
5:15 PM,35.6,24.8,65,30.00,10.0,East,12.7,16.1,N/A,,Clear,90,2012-11-01 22:15:00
5:35 PM,35.6,24.8,65,30.01,10.0,East,11.5,16.1,N/A,,Clear,90,2012-11-01 22:35:00
5:55 PM,35.6,23.0,60,30.00,10.0,East,9.2,-,N/A,,Clear,90,2012-11-01 22:55:00
6:15 PM,35.6,23.0,60,30.00,10.0,East,10.4,18.4,N/A,,Clear,90,2012-11-01 23:15:00
6:35 PM,33.8,23.0,65,29.99,10.0,East,10.4,-,N/A,,Clear,90,2012-11-01 23:35:00
6:55 PM,33.8,23.0,65,30.00,10.0,East,9.2,-,N/A,,Clear,90,2012-11-01 23:55:00
7:15 PM,32.0,24.8,75,30.00,10.0,East,11.5,16.1,N/A,,Clear,80,2012-11-02 00:15:00
7:35 PM,32.0,23.0,69,30.01,10.0,East,11.5,16.1,N/A,,Clear,90,2012-11-02 00:35:00
7:55 PM,32.0,24.8,75,30.01,10.0,East,11.5,17.3,N/A,,Clear,90,2012-11-02 00:55:00
8:15 PM,32.0,24.8,75,30.02,10.0,East,10.4,-,N/A,,Clear,90,2012-11-02 01:15:00
8:35 PM,30.2,24.8,80,30.03,10.0,East,10.4,-,N/A,,Clear,80,2012-11-02 01:35:00
8:55 PM,30.2,24.8,80,30.03,10.0,East,9.2,-,N/A,,Partly Cloudy,80,2012-11-02 01:55:00
9:15 PM,30.2,24.8,80,30.02,10.0,East,12.7,-,N/A,,Partly Cloudy,80,2012-11-02 02:15:00
9:35 PM,30.2,24.8,80,30.02,10.0,East,10.4,17.3,N/A,,Scattered Clouds,90,2012-11-02 02:35:00
9:55 PM,28.4,24.8,86,30.02,10.0,East,10.4,16.1,N/A,,Partly Cloudy,100,2012-11-02 02:55:00
10:15 PM,30.2,24.8,80,30.02,10.0,East,9.2,-,N/A,,Clear,90,2012-11-02 03:15:00
10:35 PM,28.4,24.8,86,30.01,10.0,East,11.5,16.1,N/A,,Clear,90,2012-11-02 03:35:00
10:55 PM,28.4,23.0,80,30.02,10.0,East,8.1,-,N/A,,Scattered Clouds,90,2012-11-02 03:55:00
11:15 PM,28.4,23.0,80,30.03,10.0,East,8.1,-,N/A,,Mostly Cloudy,100,2012-11-02 04:15:00
11:35 PM,28.4,23.0,80,30.04,10.0,East,8.1,-,N/A,,Scattered Clouds,100,2012-11-02 04:35:00
11:55 PM,28.4,23.0,80,30.03,10.0,East,8.1,-,N/A,,Partly Cloudy,100,2012-11-02 04:55:00